Flag for Pakistan Weather past 2 weeks in Islamabad, Pakistan

Now
73 °F

Passing clouds.


Feels Like: 77 °F
Forecast: 70 / 101 °F
Wind: 7 mph from Northeast

Location: Islamabad Airport

Current Time: May 6, 2015 at 5:34:52 AM

Latest Report: May 6, 2015 at 4:00 AM


Visibility: 4 mi

Pressure: 29.71 "Hg

Humidity: 53%

Dew point: 55 °F

Location of IslamabadLocation

Historic Weather in Islamabad — Graph

°F

Islamabad temperature yesterday

Maximum temperature yesterday: 95 °F (at 1:00 PM)
Minimum temperature yesterday: 72 °F (at 5:00 AM)
Average temperature yesterday: 84 °F

Past Weeks' High & Low Weather Summary

 TemperatureHumidityPressure
High102 °F (Apr 23, 8:00 PM)88% (Apr 21, 6:00 AM)30.01 "Hg (Apr 21, 6:00 AM)
Low59 °F (Apr 27, 11:00 AM)17% (Apr 23, 8:00 PM)29.71 "Hg (Apr 22, 1:00 PM)
Average79 °F52%29.83 "Hg
* Reported Apr 21 4:00 AM — May 6 4:00 AM, Islamabad, Weather by CustomWeather, © 2015

Note: Actual official high and low records may vary slightly from our data, if they occured in-between our weather recording intervals... More about our weather records

Advertising

Islamabad weather history for previous 24 hours

 ConditionsComfort  
Time TempWeatherWind HumidityBarometerVisibility
4:00 AM
Wed, May 6
73 °FPassing clouds.7 mph53%29.71 "Hg4 mi
3:00 AM75 °FHaze.7 mph54%29.71 "Hg4 mi
2:00 AM77 °FPassing clouds.7 mph51%29.74 "Hg4 mi
1:00 AM77 °FPassing clouds.7 mph47%29.77 "Hg4 mi
12:00 AM79 °FPassing clouds.7 mph45%29.77 "Hg4 mi
11:00 PM
Tue, May 5
81 °FPassing clouds.7 mph42%29.77 "Hg4 mi
10:00 PM81 °FPassing clouds.12 mph34%29.77 "Hg4 mi
9:00 PM82 °FPassing clouds.9 mph42%29.77 "Hg4 mi
8:00 PM86 °FPassing clouds.No wind33%29.77 "Hg4 mi
7:00 PM88 °FPassing clouds.No wind29%29.74 "Hg4 mi
6:00 PM91 °FSunny.7 mph28%29.74 "Hg10 mi
5:00 PM93 °FSunny.14 mph24%29.74 "Hg10 mi
4:00 PM95 °FSunny.14 mph23%29.77 "Hg10 mi
3:00 PM95 °FSunny.18 mph22%29.77 "Hg10 mi
2:00 PM95 °FSunny.18 mph22%29.80 "Hg10 mi
1:00 PM95 °FPassing clouds.21 mph26%29.83 "Hg5 mi
12:00 PM93 °FPassing clouds.18 mph30%29.83 "Hg4 mi
11:00 AM88 °FPassing clouds.9 mph40%29.83 "Hg4 mi
10:00 AM88 °FHaze.9 mph40%29.86 "Hg2 mi
9:00 AM81 °FHaze.5 mph45%29.83 "Hg4 mi
8:00 AM77 °FHaze.5 mph47%29.83 "Hg2 mi
7:00 AM73 °FScattered clouds.7 mph61%29.83 "Hg1 mi
5:00 AM72 °FPassing clouds.No wind65%29.80 "Hg4 mi
Weather by CustomWeather, © 2015

See weather overviewHow to use our weather pages